Lexington Weather

Lexington, Massachusetts, USA

71°F
9/22/2021 2:09pm 
  • Lexington Conditions: Light rain, Mist, Overcast
  • Temperature: 71.2°F / 21.8°CColder 3.6°F than last hour.
  • Dew Point: 68.7°FIncreased 0.5°Fsince last hour.
  • Relative Humidity: 92%Increased 12.0% since last hour.
  • Wind: Wind from W W 2 mph, 10-min avg: 3 mph, gust: 7 mph
  • Barometer: 30.09 in Steady
  • Visibility: 2 miles
  • Rain Today: 0.00 in
  •   

Regional Weather Roundup
for Boston / Norton, MA

        
000
ASUS41 KBOX 160904
RWRBOX

REGIONAL WEATHER ROUNDUP
NATIONAL WEATHER SERVICE BOSTON/NORTON MA
500 AM EDT THU SEP 16 2021

NOTE:  "FAIR" INDICATES FEW OR NO CLOUDS BELOW 12,000 FEET WITH NO 
SIGNIFICANT WEATHER AND/OR OBSTRUCTIONS TO VISIBILITY.

MAZALL-161000-
EASTERN MASSACHUSETTS
  
CITY           SKY/WX    TMP DP  RH WIND       PRES   REMARKS
BOSTON         CLOUDY    72  62  71 NW12      30.13R                  
BEVERLY        LGT RAIN  67  40  37 NW8       30.13R                  
LAWRENCE       RAIN      67  64  90 N3        30.14R                  
BEDFORD        TSTM      66  65  96 CALM      30.11R FOG              
BLUE HILL      NOT AVBL                                               
NORWOOD        MOCLDY    69  66  90 NW6       30.13R                  
MARSHFIELD     CLOUDY    70  66  88 CALM      30.10R                  
PLYMOUTH       CLOUDY    72  70  93 CALM      30.11R                  
TAUNTON        MOCLDY    70  68  93 CALM      30.10R                  
NEW BEDFORD    CLOUDY    73  71  93 W5        30.10R                  
$$

MAZALL-161000-
CAPE COD AND THE ISLANDS
  
CITY           SKY/WX    TMP DP  RH WIND       PRES   REMARKS
FALMOUTH       NOT AVBL                                               
HYANNIS        MOCLDY    73  72  96 W3        30.09R                  
CHATHAM        MOCLDY    72  71  97 SW6       30.11R                  
PROVINCETOWN   PTCLDY    69  69 100 CALM      30.11R                  
NANTUCKET      CLEAR     73  71  93 SW9       30.11R                  
MARTHAS VNYRD  PTCLDY    71  71 100 SW3       30.10R                  
$$
 
MAZALL-161000-
CENTRAL AND WESTERN MASSACHUSETTS
  
CITY           SKY/WX    TMP DP  RH WIND       PRES   REMARKS
WORCESTER      LGT RAIN  65  62  90 N5        30.14R FOG              
FITCHBURG      LGT RAIN  66  65  96 W6        30.14R                  
ORANGE         RAIN      64  62  93 NW5       30.15R                  
SPRINGFIELD    LGT RAIN  64  64 100 W5        30.13R                  
WESTFIELD      LGT RAIN  65  65 100 S6        30.14R                  
NORTH ADAMS    CLOUDY    62  60  93 W6        30.16R                  
PITTSFIELD     CLOUDY    61  59  93 SW3       30.16R                  
$$
 
RIZALL-161000-
RHODE ISLAND
  
CITY           SKY/WX    TMP DP  RH WIND       PRES   REMARKS
PROVIDENCE     LGT RAIN  72  70  93 N6        30.10R                  
NEWPORT        LGT RAIN  72  71  97 SW5       30.09S FOG              
BLOCK ISLAND   CLOUDY    71  69  93 SW8       30.11R                  
SMITHFIELD     LGT RAIN  67  66  97 N7        30.13R                  
WESTERLY       LGT RAIN  71  71 100 SW3       30.10R                  
$$
 
CTZALL-161000-
CONNECTICUT
  
CITY           SKY/WX    TMP DP  RH WIND       PRES   REMARKS
BRADLEY INTL   LGT RAIN  66  64  93 NW5       30.16R                  
HARTFORD       CLOUDY    70  64  81 NW8       30.16R                  
BRIDGEPORT     MOCLDY    72  63  73 N9        30.10R                  
DANBURY        CLOUDY    68  63  84 E6        30.13S                  
GROTON         CLOUDY    72  70  93 N8        30.09R                  
NEW HAVEN      CLOUDY    72  66  81 N14G20    30.11R                  
CHESTER        FAIR      70  66  88 N8G15     30.12R                  
MERIDEN        HVY RAIN  68  64  87 N8        30.13R FOG              
WILLIMANTIC    CLOUDY    67  64  90 N6        30.13R THUNDER          
OXFORD         CLOUDY    66  62  87 N10       30.14R                  
$$

MEZ002-015-021-024-NHZ003-005-008-011-012-014-VTZ005-008-161000-
NORTHERN NEW ENGLAND
  
CITY           SKY/WX    TMP DP  RH WIND       PRES   REMARKS
PORTLAND ME    MOCLDY    65  64  97 NE3       30.11S                  
BANGOR ME      CLOUDY    60  56  86 NW3       30.14R                  
CONCORD NH     NOT AVBL                                               
MANCHESTER NH  LGT RAIN  67  63  87 NW3       30.11R                  
NASHUA NH      LGT RAIN  65  65 100 CALM      30.13R                  
PORTSMOUTH NH  CLOUDY    66  65  95 W5        30.14R                  
JAFFREY NH     LGT RAIN  64  64 100 CALM      30.14R                  
KEENE NH       CLOUDY    63  63 100 CALM      30.15R                  
BURLINGTON VT  CLEAR     56  55  97 CALM      30.18R                  
MT. WASHINGTON NOT AVBL                                               
$$

NYZ052-076-161000-
EASTERN NEW YORK
  
CITY           SKY/WX    TMP DP  RH WIND       PRES   REMARKS
ALBANY         CLOUDY    59  59 100 NW6       30.16R                  
NEW YORK CITY  CLOUDY    73  61  65 NE12      30.08R                  
$$
 
ANZALL-161000-
MARINE OBSERVATIONS
  
STATION/POSITION TIME  TEMP    WIND        PRES    VSBY  WAVE
                       AIR SEA DIR/SP/G                  HT/PER
                 (UTC) (F)     (DEG/KT/KT) (MB)    (MI)  (FT/S)
BOSTON BUOY      0840      64   CALM  /  2 1019.7R
BUZZARDS BAY     0800          220/ 10/ 11 1019.6F
NANTUCKET SOUND  0840   73 72  210/ 10/ 12 1019.1R
MASS BAY-STELLWA 0804   66     190/  4/  4 1018.5S  1 7/8  1/ 5
ISLE OF SHOALS   0800   67     310/  6/  7 1018.4R
S OF BLOCK IS    0826      69                N/A           4/ 6
$$

......................KEY.........................
  SKY/WX - SKY CONDITION/PRESENT WEATHER
  TMP    - TEMPERATURE IN FAHRENHEIT
  DWPT   - DEWPOINT IN FAHRENHEIT
  RH     - RELATIVE HUMIDITY IN PERCENT
  WIND   - DIRECTION AND SPEED IN MPH
  PRES   - MEAN SEA LEVEL PRESSURE IN INCHES OF HG
  WCI    - WIND CHILL INDEX
  VSB    - VISIBILITY IN MILES
  HX     - HEAT INDEX
  TC     - TEMPERATURE IN CELSIUS
  VRB    - VARIABLE WIND DIRECTION
  N/A    - NOT AVAILABLE
  
      

Other recent Regional Weather Roundups

Wed Sep 22, 1:04pm

Wed Sep 22, 12:05pm

Wed Sep 22, 11:04am

Wed Sep 22, 10:04am

Wed Sep 22, 9:04am

Wed Sep 22, 8:04am

Wed Sep 22, 7:04am

Wed Sep 22, 6:04am

Wed Sep 22, 5:04am

Wed Sep 22, 4:04am

Wed Sep 22, 3:04am

Wed Sep 22, 2:04am

Wed Sep 22, 1:04am

Wed Sep 22, 12:04am

Tue Sep 21, 11:04pm

Tue Sep 21, 10:04pm

Tue Sep 21, 9:04pm

Tue Sep 21, 8:04pm

Tue Sep 21, 7:04pm

Tue Sep 21, 6:04pm

Tue Sep 21, 5:04pm

Tue Sep 21, 4:04pm

Tue Sep 21, 3:04pm

Tue Sep 21, 2:04pm

Tue Sep 21, 1:04pm

Tue Sep 21, 12:04pm

Tue Sep 21, 11:04am

Tue Sep 21, 10:04am

Tue Sep 21, 9:04am

Tue Sep 21, 8:04am

Tue Sep 21, 7:04am

Tue Sep 21, 6:04am

Tue Sep 21, 5:04am

Tue Sep 21, 4:04am

Tue Sep 21, 3:04am

Tue Sep 21, 2:04am

Tue Sep 21, 1:04am

Tue Sep 21, 12:04am

Mon Sep 20, 11:04pm

Mon Sep 20, 10:04pm

Mon Sep 20, 9:04pm

Mon Sep 20, 8:04pm

Mon Sep 20, 7:04pm

Mon Sep 20, 6:04pm

Mon Sep 20, 5:04pm

Mon Sep 20, 4:04pm

Mon Sep 20, 3:04pm

Mon Sep 20, 2:04pm

Mon Sep 20, 1:04pm

Mon Sep 20, 12:04pm

Mon Sep 20, 11:04am

Mon Sep 20, 10:04am

Mon Sep 20, 9:04am

Mon Sep 20, 7:04am

Mon Sep 20, 6:04am

Mon Sep 20, 5:04am

Mon Sep 20, 4:04am

Mon Sep 20, 3:04am

Mon Sep 20, 2:04am

Mon Sep 20, 1:04am

Mon Sep 20, 12:04am

Sun Sep 19, 11:04pm

Sun Sep 19, 10:04pm

Sun Sep 19, 9:04pm

Sun Sep 19, 8:04pm

Sun Sep 19, 7:04pm

Sun Sep 19, 6:04pm

Sun Sep 19, 5:04pm

Sun Sep 19, 4:04pm

Sun Sep 19, 3:04pm

Sun Sep 19, 2:05pm

Sun Sep 19, 1:04pm

Sun Sep 19, 12:04pm

Sun Sep 19, 11:04am

Sun Sep 19, 10:05am

Sun Sep 19, 9:04am

Sun Sep 19, 8:04am

Sun Sep 19, 7:04am

Sun Sep 19, 6:04am

Sun Sep 19, 5:04am

Sun Sep 19, 4:04am

Sun Sep 19, 3:04am

Sun Sep 19, 2:04am

Sun Sep 19, 1:04am

Sun Sep 19, 12:04am

Sat Sep 18, 11:05pm

Sat Sep 18, 10:04pm

Sat Sep 18, 9:04pm

Sat Sep 18, 8:04pm

Sat Sep 18, 7:04pm

Sat Sep 18, 6:04pm

Sat Sep 18, 5:04pm

Sat Sep 18, 4:04pm

Sat Sep 18, 3:04pm

Sat Sep 18, 2:04pm

Sat Sep 18, 1:04pm

Sat Sep 18, 12:04pm

Sat Sep 18, 11:04am

Sat Sep 18, 10:04am

Sat Sep 18, 9:04am

Sat Sep 18, 8:04am

Sat Sep 18, 7:04am

Sat Sep 18, 6:04am

Sat Sep 18, 5:04am

Sat Sep 18, 4:04am

Sat Sep 18, 3:04am

Sat Sep 18, 2:04am

Sat Sep 18, 1:04am

Sat Sep 18, 12:04am

Fri Sep 17, 11:04pm

Fri Sep 17, 10:04pm

Fri Sep 17, 9:04pm

Fri Sep 17, 8:04pm

Fri Sep 17, 7:04pm

Fri Sep 17, 6:04pm

Fri Sep 17, 5:04pm

Fri Sep 17, 4:04pm

Fri Sep 17, 3:04pm

Fri Sep 17, 2:04pm

Fri Sep 17, 1:04pm

Fri Sep 17, 12:05pm

Fri Sep 17, 11:04am

Fri Sep 17, 10:04am

Fri Sep 17, 9:04am

Fri Sep 17, 8:04am

Fri Sep 17, 7:04am

Fri Sep 17, 6:04am

Fri Sep 17, 5:04am

Fri Sep 17, 4:04am

Fri Sep 17, 3:04am

Fri Sep 17, 2:04am

Fri Sep 17, 1:04am

Fri Sep 17, 12:04am

Thu Sep 16, 11:04pm

Thu Sep 16, 10:04pm

Thu Sep 16, 9:04pm

Thu Sep 16, 8:04pm

Thu Sep 16, 7:04pm

Thu Sep 16, 6:04pm

Thu Sep 16, 5:04pm

Thu Sep 16, 4:04pm

Thu Sep 16, 3:04pm

Thu Sep 16, 2:04pm

Thu Sep 16, 1:05pm

Thu Sep 16, 12:04pm

Thu Sep 16, 11:05am

Thu Sep 16, 10:05am

Thu Sep 16, 9:04am

Thu Sep 16, 8:04am

Thu Sep 16, 7:04am

Thu Sep 16, 6:04am

Thu Sep 16, 4:04am

Thu Sep 16, 3:04am

Thu Sep 16, 2:04am

Thu Sep 16, 1:04am

Thu Sep 16, 12:04am

Wed Sep 15, 11:04pm

Wed Sep 15, 10:04pm

Wed Sep 15, 9:04pm

Wed Sep 15, 8:04pm

Wed Sep 15, 7:04pm

Wed Sep 15, 6:04pm

Wed Sep 15, 5:05pm

Wed Sep 15, 4:04pm

Wed Sep 15, 3:04pm

Wed Sep 15, 2:04pm

Meta data:

ID: 34f14006-e2e0-4f59-818d-b2ca9a229dad
Link: https://api.weather.gov/products/34f14006-e2e0-4f59-818d-b2ca9a229dad